This demonstration page uses our WeatherBlox Daily Observations layout. Learn more.

Left ArrowRight Arrow

39.95238, -75.16362

Hourly Observations for May 2, 2016

Temp ( °F °C ) Dew Point ( °F °C ) Humidity (%) Winds ( mph kmh ) Pressure ( in mb ) Visibility ( mi km ) Precip ( " mm )
12:10 am 00:10 Cloudy with Drizzle 50 10 47 8.3 89 89 ENE 6 9 30.06 1018 4 6 0.00 0.03
12:54 am 00:54 Cloudy with Mist and Fog 50 10 47 8.3 89 89 NE 7 11 30.06 1018 4 6 0.00 0.03
1:19 am 01:19 Cloudy with Drizzle 50 10 46 7.8 86 86 ENE 7 11 30.03 1017 6 10 0.00 0.03
1:24 am 01:24 Cloudy with Drizzle 50 10 46 7.8 86 86 ENE 6 9 30.06 1018 7 11 0.00 0.03
1:54 am 01:54 Cloudy 49 9.4 46 7.8 90 90 E 8 13 30.04 1017 7 11 0.00 0.03
2:13 am 02:13 Cloudy 49 9.4 45 7.2 86 86 ENE 7 11 30.03 1017 10 16 0.00 0.00
2:23 am 02:23 Cloudy 49 9.4 45 7.2 86 86 ENE 9 15 30.03 1017 10 16 0.00 0.00
2:54 am 02:54 Cloudy 49 9.4 45 7.2 86 86 ENE 8 13 30.01 1016 10 16 0.00 0.00
3:54 am 03:54 Cloudy with Light Rain 49 9.4 45 7.2 86 86 E 7 11 30.01 1016 10 16 0.00 0.03
3:57 am 03:57 Cloudy with Light Rain 49 9.4 45 7.2 86 86 E 7 11 30.00 1016 9 14 0.00 0.03
4:05 am 04:05 Cloudy 49 9.4 45 7.2 86 86 E 6 9 30.03 1017 10 16 0.00 0.03
4:54 am 04:54 Cloudy with Light Rain 48 8.9 45 7.2 89 89 ENE 8 13 29.98 1015 10 16 0.00 0.03
5:54 am 05:54 Cloudy 48 8.9 45 7.2 89 89 E 8 13 30.00 1016 10 16 0.00 0.03
6:54 am 06:54 Cloudy 49 9.4 45 7.2 86 86 SE 6 9 30.01 1016 7 11 0.00 0.00
7:54 am 07:54 Cloudy 49 9.4 45 7.2 86 86 E 6 9 30.00 1016 8 13 0.00 0.00
8:24 am 08:24 Cloudy 50 10 46 8 88 88 Calm 30.00 1016 8 13 0.00 0.00
8:44 am 08:44 Cloudy with Haze 50 10 45 7 82 82 N 5 7 30.03 1017 6 10 0.00 0.00
8:54 am 08:54 Cloudy with Mist and Fog 50 10 46 7.8 86 86 VRB 3 6 30.02 1017 6 10 0.00 0.00
9:31 am 09:31 Cloudy with Haze 51 10.6 46 7.8 83 83 SE 7 11 30.00 1016 3 5 0.00 0.00
9:54 am 09:54 Cloudy with Light Rain 51 10.6 47 8.3 86 86 SE 7 11 29.98 1015 3 5 0.00 0.03
10:14 am 10:14 Cloudy with Mist and Fog 51 10.6 47 8.3 86 86 SE 6 9 30.00 1016 5 8 0.00 0.03
10:47 am 10:47 Cloudy 53 11.7 48 8.9 83 83 E 5 7 29.97 1015 7 11 0.00 0.03
10:54 am 10:54 Cloudy 53 11.7 48 8.9 83 83 E 5 7 29.96 1015 7 11 0.00 0.03
11:40 am 11:40 Cloudy with Mist and Fog 54 12 48 9 82 82 Calm 29.97 1015 5 8 0.00 0.00
11:54 am 11:54 Cloudy with Mist and Fog 54 12.2 49 9.4 83 83 VRB 3 6 29.96 1015 5 8 0.00 0.00
12:19 pm 12:19 Cloudy with Mist and Fog 55 12.8 50 10 83 83 Calm 29.97 1015 3 5 0.00 0.00
12:54 pm 12:54 Cloudy with Mist and Fog 56 13.3 51 10.6 84 84 Calm 29.95 1014 4 6 0.00 0.00
1:34 pm 13:34 Cloudy with Mist and Fog 56 13.3 51 10.6 84 84 Calm 29.94 1014 5 8 0.00 0.00
1:49 pm 13:49 Cloudy with Mist and Fog 55 13 52 11 88 88 VRB 5 7 29.94 1014 4 6 0.00 0.00
1:54 pm 13:54 Cloudy with Mist and Fog 56 13.3 51 10.6 84 84 VRB 5 7 29.94 1014 3 5 0.00 0.00
2:34 pm 14:34 Cloudy with Haze 57 14 52 11 82 82 Calm 29.94 1014 5 8 0.00 0.00
2:44 pm 14:44 Cloudy 58 14.4 53 11.7 84 84 VRB 3 6 29.94 1014 7 11 0.00 0.00
2:54 pm 14:54 Cloudy 58 14.4 53 11.7 84 84 VRB 5 7 29.92 1013 7 11 0.00 0.00
3:37 pm 15:37 Cloudy 60 15.6 54 12.2 80 80 Calm 29.91 1013 8 13 0.00 0.00
3:54 pm 15:54 Cloudy 61 16.1 54 12.2 78 78 Calm 29.91 1013 9 14 0.00 0.00
4:43 pm 16:43 Mostly Cloudy 63 17.2 54 12.2 73 73 WSW 8 13 29.91 1013 9 14 0.00 0.00
4:54 pm 16:54 Mostly Cloudy 63 17.2 54 12.2 73 73 S 6 9 29.91 1013 9 14 0.00 0.00
5:54 pm 17:54 Mostly Cloudy 64 17.8 55 12.8 73 73 Calm 29.90 1013 9 14 0.00 0.00
6:00 pm 18:00 Mostly Cloudy 64 17.8 55 12.8 73 73 Calm 29.91 1013 10 16 0.00 0.00
6:54 pm 18:54 Partly Cloudy 65 18.3 55 12.8 70 70 Calm 29.89 1012 10 16 0.00 0.00
7:54 pm 19:54 Mostly Cloudy 62 16.7 54 12.2 75 75 NE 7 11 29.92 1013 10 16 0.00 0.00
8:54 pm 20:54 Mostly Cloudy 61 16.1 54 12.2 78 78 E 7 11 29.91 1013 7 11 0.00 0.00
9:54 pm 21:54 Cloudy 62 16.7 54 12.2 75 75 ESE 5 7 29.91 1013 7 11 0.00 0.00
10:44 pm 22:44 Cloudy with Light Rain 60 15.6 55 12.8 84 84 E 5 7 29.91 1013 5 8 0.02 0.51
10:54 pm 22:54 Cloudy with Light Rain 60 15.6 55 12.8 84 84 E 6 9 29.92 1013 5 8 0.02 0.51
11:06 pm 23:06 Cloudy with Thunderstorms 60 15.6 56 13.3 86 86 N 3 6 29.91 1013 4 6 0.02 0.51
11:54 pm 23:54 Cloudy with Thunderstorms 60 15.6 56 13.3 86 86 ENE 5 7 29.92 1013 3 5 0.11 2.79

Powered by AerisWeather